Probability
3 10 26 35 29 32 39 35 35 39 42 42 42 35 45 58 52 48 48 48 45 45 45 39 39 39 32 16 16 19 16 29 16 16 16 29 26 19 19 13 16 6 23
3 13 26 32 32 35 39 39 39 39 39 45 45 39 48 45 45 45 48 45 42 45 39 35 32 29 23 23 13 19 13 10 19 16 13 10 16 19 3 10 26 10 13
6 13 16 29 39 35 35 32 35 42 32 48 45 39 42 42 42 39 42 45 45 39 42 35 23 23 19 19 16 16 13 13 13 13 0 0 3 6 3 10 16 10 10
6 13 10 26 42 35 35 32 32 35 39 42 42 42 42 42 42 42 39 42 39 32 39 29 29 23 19 19 13 10 13 10 10 3 0 0 0 6 3 6 6 10 6
10 13 10 19 39 32 32 29 29 29 32 32 39 45 45 48 48 45 42 35 32 35 39 32 29 23 16 16 19 10 10 6 10 0 0 3 3 6 3 3 6 6 6
10 13 16 19 35 29 29 29 26 23 16 23 32 35 42 42 42 39 39 35 35 32 32 26 26 16 26 19 13 10 3 3 0 6 3 3 0 6 10 3 3 10 6
6 10 10 13 26 32 32 23 26 23 19 16 23 26 29 32 42 32 39 35 32 29 26 23 23 19 16 16 13 13 3 0 3 6 3 0 3 6 6 6 3 3 6
10 10 10 13 16 23 29 26 26 19 16 19 23 29 29 29 26 29 32 35 32 26 16 16 19 23 13 13 10 10 6 0 0 0 0 3 6 6 6 3 6 6 6
10 10 10 13 10 13 16 19 26 23 23 19 26 26 26 23 19 23 29 29 29 26 23 16 19 13 10 6 3 3 0 0 0 0 0 3 3 3 6 3 3 6 6
10 10 10 13 10 13 13 13 13 13 13 13 16 16 13 13 19 19 19 19 19 23 23 13 16 6 3 3 0 0 0 0 0 0 0 0 0 3 3 3 3 3 6
10 10 10 13 10 10 10 10 10 6 10 6 3 3 6 10 13 13 0 13 16 16 19 10 6 3 0 0 0 0 0 0 0 0 3 0 0 0 3 3 3 3 3
6 6 6 13 13 10 6 13 10 13 13 16 16 13 16 10 10 6 0 0 3 3 0 0 0 0 0 0 0 0 0 0 0 0 0 0 0 0 3 3 3 3 3
6 6 6 6 13 10 13 13 10 10 10 10 10 13 16 10 10 13 6 3 3 0 0 0 0 0 0 0 0 0 0 0 0 0 0 0 0 0 3 3 3 3 3
3 3 6 6 6 10 10 10 10 10 10 10 10 10 13 13 13 6 6 10 10 6 6 0 0 0 0 0 0 0 0 0 0 0 0 0 0 0 3 3 0 3 3
3 3 6 6 6 6 6 10 6 6 6 6 6 6 6 6 6 3 6 3 3 3 3 0 0 0 0 0 0 0 0 0 0 0 0 0 0 0 0 3 3 3 0
3 6 6 6 6 6 6 6 10 6 6 6 10 3 3 6 3 0 0 0 3 3 3 0 0 0 0 0 0 0 0 0 0 0 0 0 0 0 0 3 3 3 0
0 3 3 3 6 6 6 6 6 6 6 6 6 3 3 6 6 3 3 3 0 0 0 0 0 0 0 0 0 0 0 0 0 0 0 0 0 0 0 0 3 0 3
0 0 3 3 3 6 6 6 6 6 6 6 6 3 3 3 3 3 0 0 0 3 0 0 0 0 0 0 0 0 0 0 0 0 0 0 0 0 0 0 0 0 3
0 0 3 3 3 3 6 6 6 6 6 6 3 3 3 3 0 0 0 0 0 0 0 0 0 0 0 0 0 0 0 0 0 0 0 0 0 0 0 0 0 0 0
0 0 0 3 3 3 3 3 6 6 6 3 3 3 0 0 0 0 0 0 0 0 0 0 0 0 0 0 0 0 0 0 0 0 0 0 0 0 0 0 0 0 0
0 0 0 0 3 3 3 3 3 6 3 3 3 0 0 0 0 0 0 0 0 0 0 0 0 0 0 0 0 0 0 0 0 0 0 0 0 0 0 0 0 0 0
0 0 0 0 0 3 3 3 3 3 6 3 3 3 0 0 0 0 0 0 0 0 0 0 0 0 0 0 0 0 0 0 0 0 0 0 0 0 0 0 0 0 0
0 0 0 0 0 3 3 3 3 3 3 0 0 3 0 0 0 0 0 0 0 0 0 0 0 0 0 0 0 0 0 0 0 0 0 0 0 0 0 0 0 0 0
0 0 0 0 0 0 3 3 3 3 0 0 0 0 0 0 0 0 0 0 0 0 0 0 0 0 0 0 0 0 0 0 0 0 0 0 0 0 0 0 0 0 0
0 0 0 0 0 0 3 3 3 3 3 0 0 0 0 0 0 0 0 0 0 0 0 0 0 0 0 0 0 0 0 0 0 0 0 0 0 0 0 0 0 0 0
0 0 0 0 0 0 0 0 3 3 3 0 0 0 0 0 0 0 0 0 0 0 0 0 0 0 0 0 0 0 0 0 0 0 0 0 0 0 0 0 0 0 0
Height
5844 5844 5844 5845 5845 5845 5846 5846 5846 5846 5846 5846 5846 5847 5847 5847 5847 5848 5848 5848 5848 5848 5848 5848 5848 5849 5849 5849 5849 5849 5850 5850 5850 5850 5850 5850 5850 5850 5850 5850 5850 5850 5849
5841 5842 5842 5842 5842 5843 5843 5843 5844 5844 5844 5844 5844 5845 5845 5845 5846 5846 5846 5846 5847 5847 5847 5847 5847 5847 5848 5848 5848 5849 5849 5849 5849 5849 5849 5849 5849 5849 5849 5849 5849 5849 5849
5838 5839 5839 5839 5840 5840 5840 5841 5841 5841 5842 5842 5842 5842 5843 5843 5843 5844 5844 5844 5845 5845 5845 5846 5846 5846 5846 5847 5847 5847 5848 5848 5848 5848 5848 5849 5849 5848 5849 5849 5849 5849 5849
5835 5835 5836 5836 5837 5837 5837 5838 5838 5838 5839 5839 5839 5840 5840 5841 5841 5841 5842 5842 5843 5843 5843 5844 5844 5845 5845 5845 5846 5846 5846 5847 5847 5847 5847 5847 5848 5848 5848 5848 5848 5849 5849
5831 5831 5832 5832 5833 5833 5834 5834 5835 5835 5836 5836 5837 5837 5837 5838 5838 5838 5839 5840 5840 5841 5841 5842 5842 5843 5843 5844 5844 5844 5845 5845 5846 5846 5846 5846 5847 5847 5847 5847 5847 5848 5848
5826 5827 5828 5828 5829 5830 5830 5831 5831 5832 5832 5833 5833 5834 5834 5834 5835 5835 5836 5837 5837 5838 5839 5839 5840 5840 5841 5842 5842 5843 5843 5844 5844 5844 5845 5845 5845 5846 5846 5846 5847 5847 5847
5821 5822 5823 5824 5824 5825 5826 5826 5827 5828 5828 5829 5829 5830 5831 5831 5831 5832 5833 5833 5834 5835 5836 5836 5837 5838 5839 5839 5840 5841 5841 5842 5842 5842 5843 5844 5844 5844 5845 5845 5845 5846 5846
5816 5817 5818 5818 5819 5820 5821 5822 5822 5823 5824 5824 5825 5825 5826 5827 5828 5828 5829 5830 5831 5831 5832 5833 5834 5835 5836 5837 5837 5838 5839 5839 5840 5841 5841 5842 5842 5843 5843 5844 5844 5844 5844
5810 5811 5812 5813 5814 5814 5815 5816 5817 5818 5818 5819 5820 5820 5821 5822 5823 5824 5825 5825 5826 5827 5828 5829 5830 5832 5832 5833 5834 5835 5836 5836 5837 5838 5839 5840 5840 5841 5841 5842 5842 5842 5842
5803 5804 5805 5806 5807 5808 5809 5810 5811 5812 5813 5813 5814 5815 5816 5817 5818 5819 5820 5820 5821 5822 5824 5825 5826 5828 5829 5830 5831 5832 5832 5833 5834 5835 5836 5837 5838 5839 5839 5840 5840 5840 5840
5797 5798 5799 5800 5801 5802 5803 5804 5804 5805 5806 5807 5808 5808 5809 5810 5811 5813 5814 5815 5816 5817 5818 5820 5822 5823 5824 5825 5826 5828 5829 5829 5830 5832 5833 5834 5835 5836 5837 5837 5838 5838 5838
5790 5791 5792 5793 5794 5795 5796 5796 5797 5798 5799 5800 5801 5801 5802 5803 5805 5806 5808 5809 5810 5811 5813 5814 5816 5817 5819 5821 5822 5823 5824 5825 5826 5828 5829 5830 5831 5833 5833 5834 5835 5836 5836
5783 5783 5784 5785 5786 5787 5788 5789 5790 5791 5792 5792 5793 5794 5795 5796 5797 5799 5801 5802 5804 5805 5806 5808 5809 5811 5813 5815 5817 5818 5820 5821 5822 5824 5825 5826 5828 5829 5830 5831 5832 5833 5833
5775 5776 5777 5778 5778 5779 5780 5782 5783 5783 5784 5784 5785 5786 5787 5788 5789 5791 5793 5795 5796 5797 5799 5800 5802 5804 5806 5809 5811 5813 5814 5816 5817 5819 5821 5822 5824 5825 5826 5827 5828 5829 5830
5767 5768 5769 5770 5771 5771 5772 5773 5774 5775 5776 5776 5777 5778 5778 5780 5781 5783 5784 5786 5788 5790 5791 5793 5795 5797 5799 5802 5804 5807 5809 5810 5812 5814 5816 5817 5819 5820 5822 5823 5824 5825 5826
5758 5759 5760 5761 5762 5763 5763 5764 5765 5766 5767 5768 5768 5769 5770 5771 5772 5774 5775 5778 5780 5782 5783 5785 5787 5789 5792 5794 5797 5800 5802 5804 5806 5808 5810 5812 5814 5815 5817 5818 5820 5821 5822
5749 5750 5751 5752 5753 5754 5755 5755 5756 5757 5757 5758 5759 5760 5761 5762 5763 5765 5766 5769 5771 5773 5775 5777 5779 5781 5784 5787 5790 5793 5795 5798 5800 5802 5804 5806 5808 5810 5811 5813 5814 5816 5817
5739 5740 5741 5742 5743 5744 5745 5746 5746 5747 5748 5748 5749 5750 5752 5753 5754 5755 5757 5759 5761 5764 5766 5768 5770 5773 5776 5779 5782 5785 5788 5791 5793 5795 5798 5800 5802 5804 5805 5807 5809 5810 5812
5729 5730 5731 5732 5733 5734 5735 5736 5736 5737 5737 5738 5739 5740 5742 5743 5744 5746 5747 5750 5752 5754 5757 5759 5761 5764 5767 5770 5773 5777 5780 5783 5785 5788 5790 5793 5795 5797 5799 5801 5802 5804 5806
5717 5719 5720 5721 5722 5723 5724 5725 5726 5726 5727 5727 5728 5730 5731 5732 5734 5736 5738 5740 5742 5745 5747 5750 5752 5755 5758 5762 5765 5768 5771 5774 5777 5780 5783 5785 5788 5790 5792 5793 5795 5797 5799
5706 5707 5709 5710 5711 5712 5713 5714 5715 5716 5716 5717 5718 5719 5720 5721 5723 5725 5727 5730 5733 5735 5737 5740 5743 5746 5749 5752 5756 5759 5762 5765 5769 5772 5774 5777 5780 5782 5784 5786 5788 5790 5792
5694 5695 5697 5698 5698 5699 5701 5702 5703 5704 5705 5706 5706 5707 5708 5710 5712 5714 5716 5719 5722 5725 5727 5730 5733 5736 5740 5743 5746 5749 5753 5757 5759 5763 5766 5768 5771 5773 5776 5778 5780 5782 5785
5681 5683 5684 5685 5686 5687 5688 5690 5691 5692 5693 5694 5695 5696 5697 5699 5701 5703 5705 5708 5711 5714 5717 5720 5723 5727 5730 5733 5736 5740 5743 5746 5750 5753 5756 5759 5762 5765 5767 5769 5771 5774 5776
5669 5670 5671 5672 5673 5674 5675 5677 5678 5679 5681 5682 5683 5685 5686 5688 5690 5692 5695 5697 5700 5703 5706 5710 5713 5716 5719 5722 5725 5729 5732 5735 5739 5743 5746 5749 5752 5755 5758 5760 5763 5765 5767
5655 5656 5657 5658 5659 5661 5662 5663 5665 5667 5668 5670 5671 5673 5675 5677 5679 5681 5684 5687 5690 5692 5695 5698 5702 5705 5708 5712 5715 5718 5721 5724 5727 5731 5735 5739 5742 5745 5748 5751 5753 5756 5758
5641 5642 5643 5645 5646 5647 5648 5649 5651 5654 5655 5657 5659 5661 5663 5665 5668 5670 5672 5675 5678 5681 5684 5687 5691 5694 5697 5700 5703 5706 5709 5712 5716 5719 5723 5727 5731 5734 5738 5740 5743 5746 5748
Wind_Speed
13 13 13 12 11 11 11 10 10 11 10 10 10 9 9 8 8 7 7 6 5 5 5 5 4 4 3 4 3 3 3 3 3 2 2 2 3 3 3 3 3 3 2
14 13 13 13 12 12 12 11 11 12 12 12 11 10 10 9 9 9 8 7 7 6 6 6 6 5 5 5 5 4 4 4 3 3 2 2 3 4 4 3 3 3 3
15 15 15 14 14 13 13 13 13 13 14 14 13 12 11 11 11 11 10 9 9 8 8 7 7 7 6 6 5 5 4 4 4 4 4 4 3 4 4 4 4 4 3
17 17 17 17 16 15 14 14 14 14 14 15 14 13 13 12 13 12 12 11 10 10 10 9 8 8 8 7 7 6 6 5 5 5 5 5 5 5 5 5 4 4 4
19 18 18 18 18 17 16 15 16 16 16 16 15 15 14 14 14 14 14 13 12 12 11 11 10 10 9 9 9 8 8 7 6 6 6 6 5 5 5 5 5 4 4
20 20 20 20 19 19 18 17 17 17 17 17 17 16 16 15 15 15 15 15 14 14 14 13 12 12 11 11 11 10 9 9 8 7 7 7 7 6 6 6 5 5 5
21 21 21 21 21 20 20 19 19 19 19 19 19 19 18 17 17 17 16 16 16 16 15 15 14 14 13 12 12 12 11 10 10 9 9 8 8 8 7 7 7 6 6
23 23 23 22 22 22 22 21 21 21 21 21 21 21 20 19 19 18 18 18 17 17 17 17 16 16 15 14 14 13 13 12 11 11 10 10 9 9 8 8 8 7 7
25 25 24 24 24 24 23 22 22 23 23 23 22 22 22 21 21 20 20 20 19 19 18 18 18 18 17 17 16 15 15 14 14 13 12 11 11 10 10 9 8 8 8
26 26 26 26 26 25 25 24 24 24 24 24 24 24 24 23 23 22 22 21 21 20 20 20 20 19 19 19 18 18 17 16 16 15 14 13 13 13 12 11 10 9 9
27 27 27 27 27 27 27 27 26 25 25 26 26 26 27 26 25 25 24 23 23 23 22 22 22 21 20 20 20 20 20 18 18 17 17 16 15 15 14 12 12 11 11
29 29 29 29 29 29 29 29 28 27 27 27 27 28 28 29 28 27 27 26 26 26 25 25 24 24 23 22 21 21 22 21 20 19 19 18 17 17 16 15 14 13 12
30 30 30 30 31 31 31 30 30 30 29 29 29 30 29 29 30 30 29 29 28 28 28 27 26 26 26 25 24 23 23 23 22 21 21 20 19 19 18 17 15 15 14
32 32 32 32 32 32 33 32 32 32 32 32 31 31 32 31 31 31 32 32 31 31 30 29 29 29 28 27 26 25 24 24 24 24 23 22 22 21 20 19 18 17 17
33 33 33 33 33 33 34 35 34 33 33 33 33 33 33 33 33 33 33 33 32 32 32 32 31 30 30 29 29 27 26 25 25 25 24 24 24 23 22 21 21 20 19
34 34 35 34 34 34 35 36 36 35 35 35 35 34 34 35 34 34 34 34 34 34 34 34 34 33 32 31 31 30 29 27 26 26 26 26 26 25 24 23 23 22 21
36 35 36 36 36 36 36 36 37 38 38 37 37 36 36 36 36 35 35 35 36 36 36 36 35 35 34 34 33 32 32 31 29 28 28 27 27 27 26 25 25 24 23
37 37 37 38 38 37 38 37 38 38 39 39 38 38 38 37 37 37 37 37 37 37 37 37 37 37 36 36 35 34 34 33 32 31 30 29 28 28 28 28 27 26 26
39 39 39 39 39 39 39 38 37 37 38 39 39 39 39 39 38 38 39 39 39 38 38 38 38 38 38 37 36 36 36 35 34 33 32 32 32 31 30 30 29 29 28
41 41 40 40 41 41 41 40 40 39 38 39 40 40 40 40 40 40 40 39 39 39 39 39 39 39 39 39 38 38 37 37 36 35 35 35 34 34 32 31 31 31 30
43 42 42 42 41 42 42 41 41 41 40 40 41 41 41 42 42 42 41 41 40 40 41 40 40 41 41 40 40 39 39 38 37 37 36 36 35 35 34 33 33 32 32
44 43 43 43 43 43 43 43 43 42 42 41 42 43 43 43 43 43 43 43 42 42 42 42 41 41 41 41 41 41 40 39 39 38 38 38 37 37 36 35 34 34 32
44 44 44 44 45 44 44 44 45 44 44 43 43 43 43 43 43 43 43 43 43 42 42 42 42 42 43 43 42 42 42 40 40 40 39 39 39 39 38 38 36 34 33
45 44 44 45 46 46 46 46 46 46 45 44 44 43 42 43 43 43 44 43 43 43 43 43 43 42 43 43 43 44 44 42 42 41 41 40 40 40 40 39 38 37 36
46 45 45 46 46 46 47 46 46 46 46 45 44 44 43 43 44 45 45 44 44 44 44 43 43 43 43 43 44 44 44 44 44 43 42 42 42 41 41 40 40 39 38
46 46 46 46 47 47 47 47 47 47 46 46 46 45 44 44 44 45 45 45 45 45 45 45 45 45 44 43 44 44 44 45 45 45 44 44 43 42 42 40 40 40 39
Wind_Direction
251 249 250 252 255 255 254 253 250 246 243 241 239 239 241 241 239 239 239 235 236 229 225 226 224 222 224 223 222 215 200 191 199 204 186 179 183 182 178 175 172 168 159
250 250 250 252 254 255 254 251 250 248 245 243 241 241 241 241 242 240 239 239 238 233 230 231 230 227 226 225 225 221 216 211 212 216 209 211 209 199 190 190 187 182 177
249 248 249 251 252 254 254 253 252 252 250 248 245 244 243 243 243 243 240 239 239 237 236 235 236 236 232 229 228 227 225 220 223 231 232 226 219 207 200 201 200 194 194
251 250 250 251 252 253 253 253 252 251 250 249 247 246 245 245 244 244 243 239 238 238 239 240 239 240 238 234 232 230 229 232 232 237 235 224 220 212 207 208 203 200 205
252 251 250 251 253 253 253 252 252 251 250 250 248 247 247 246 246 246 245 240 238 240 241 242 242 242 241 238 236 235 233 234 238 239 235 232 233 222 213 213 209 208 214
252 251 251 251 252 253 254 253 252 252 251 251 251 250 249 249 248 246 246 244 239 239 241 242 242 242 241 239 238 237 236 235 237 238 236 235 236 233 225 223 222 226 232
252 251 251 251 251 253 254 255 254 253 253 253 253 252 252 252 249 246 246 245 242 240 240 241 242 241 241 240 238 238 238 238 236 236 236 235 235 235 233 231 232 235 242
253 252 251 252 253 253 254 255 256 255 255 255 254 253 253 252 251 249 248 247 245 242 241 242 242 242 242 242 242 243 241 239 237 237 238 236 236 238 237 236 238 238 239
253 252 251 252 254 254 253 254 255 256 256 255 255 254 253 253 252 251 249 247 246 246 244 243 243 243 244 244 244 244 243 241 239 238 238 237 238 239 238 239 239 239 239
253 253 253 252 253 254 254 254 254 255 256 257 256 256 254 255 253 250 248 247 247 247 247 245 245 244 244 244 246 244 243 243 240 240 239 238 239 240 239 239 239 242 242
253 253 253 253 254 255 255 255 254 254 255 257 257 257 256 256 254 251 250 250 249 247 247 245 244 245 244 245 246 245 245 245 243 241 241 240 241 241 241 240 241 244 244
254 254 254 253 254 254 255 255 255 255 257 257 257 258 258 256 254 253 252 252 251 249 248 246 244 244 245 246 247 246 245 245 244 243 241 239 241 242 242 242 243 246 247
254 254 255 254 253 253 253 254 256 257 256 256 257 258 258 256 254 253 252 252 252 251 249 246 245 244 244 245 247 248 246 245 244 243 242 239 240 242 242 243 245 247 247
254 255 255 256 255 253 253 254 255 255 255 255 255 257 256 255 254 253 253 253 253 251 249 248 246 245 244 244 245 247 247 246 245 243 242 240 239 241 242 243 244 246 248
254 255 256 256 255 255 255 254 254 255 255 255 255 255 256 255 254 254 254 252 251 251 250 248 246 245 244 244 244 245 246 247 246 243 242 241 240 241 243 243 245 246 248
255 255 256 256 256 256 256 255 255 255 255 256 255 255 256 255 253 253 251 251 251 251 250 249 248 246 245 244 244 245 246 247 247 246 243 243 242 241 243 244 245 247 248
257 257 257 257 257 257 257 258 256 256 255 256 256 255 255 255 255 253 249 249 249 249 249 249 249 248 245 244 244 245 246 247 248 247 245 244 244 243 243 244 245 246 247
259 258 258 257 257 258 258 258 257 256 256 255 255 255 255 256 255 253 250 250 248 248 248 249 249 248 246 244 244 244 245 247 247 247 245 244 244 245 245 244 245 246 247
259 258 259 258 257 257 258 258 258 257 256 256 255 255 255 255 254 252 250 249 247 247 248 249 248 247 246 245 244 244 245 246 247 247 246 244 244 245 246 245 246 246 246
259 259 259 259 258 257 257 258 258 258 257 257 256 255 255 255 254 252 250 248 248 248 248 247 247 246 246 246 245 244 244 244 246 247 246 245 244 245 246 247 245 245 245
259 259 260 260 259 257 257 258 258 258 259 258 257 257 255 254 253 252 249 248 248 248 247 246 245 245 246 246 245 245 244 245 245 246 246 246 245 246 247 246 245 245 246
260 260 260 260 260 258 257 258 258 259 259 258 257 256 255 254 253 250 248 248 248 247 247 245 245 245 246 247 246 245 245 245 245 245 245 245 245 246 247 246 245 244 246
260 261 260 260 260 260 258 258 258 258 259 258 257 256 255 253 252 250 248 248 248 247 246 245 245 245 245 246 247 247 246 246 245 244 244 244 244 245 246 246 246 244 245
260 261 261 261 261 260 259 257 257 258 258 258 256 256 254 253 252 250 249 248 248 246 245 245 246 246 246 246 247 247 248 248 246 243 244 244 244 244 244 245 245 245 246
260 261 261 260 260 260 259 257 257 256 257 257 255 254 253 253 252 251 249 249 247 247 246 247 246 247 246 246 247 248 248 247 246 244 244 244 243 244 244 246 246 246 247
260 261 260 260 259 259 259 258 256 255 256 256 254 253 252 252 252 251 249 248 247 248 247 247 247 247 247 248 248 248 248 246 245 244 245 244 244 244 245 246 246 247 248